EHI
0 0 0 0 0 0 0 0 0 0 0 0 0 0 0 0 0 0 0 0 0 0 0 0 0 0 0 0 1 1 1 1 1 1 1 1 3 3 1 0 0 1 0 0
0 0 0 0 0 0 0 0 0 0 0 0 0 0 0 0 0 0 0 0 0 0 0 0 0 0 0 1 2 2 2 2 2 2 2 3 4 3 2 1 0 1 0 0
0 0 0 0 0 0 0 0 0 0 0 0 0 0 0 0 0 0 0 0 0 0 0 0 0 0 1 2 3 3 2 2 2 2 3 4 4 3 2 1 0 0 0 0
0 0 0 0 0 0 0 0 0 0 0 0 0 0 0 0 0 0 0 0 0 0 0 0 0 1 2 3 3 2 1 1 1 1 2 3 3 3 3 1 0 0 0 0
0 0 0 0 0 0 0 0 0 0 0 0 0 0 0 0 0 0 0 0 0 0 0 0 0 1 3 4 3 2 1 0 0 0 1 2 3 3 3 2 1 0 0 0
0 0 0 0 0 0 0 0 0 0 0 0 0 0 0 0 0 0 0 0 0 0 0 0 0 1 3 4 3 3 1 0 0 1 1 1 2 3 3 3 2 1 0 0
0 0 0 0 0 0 0 0 0 0 0 0 0 0 0 0 0 0 0 0 0 0 0 0 0 1 2 3 2 2 1 0 1 2 2 2 3 3 3 3 3 2 0 0
0 0 0 0 0 0 0 0 0 0 0 0 0 0 0 0 0 0 0 0 0 0 0 0 0 1 2 1 1 1 1 0 1 2 3 3 3 3 3 3 3 2 0 0
0 0 0 0 0 0 0 0 0 0 0 0 0 0 0 0 0 0 0 0 0 0 0 0 0 1 1 0 0 0 0 0 1 2 3 3 3 3 3 3 3 2 1 0
0 0 0 0 0 0 0 0 0 0 0 0 0 0 0 0 0 0 0 0 0 0 0 0 0 0 0 0 0 0 0 0 1 2 3 3 3 3 3 3 3 2 1 0
0 0 0 0 0 0 0 0 0 0 0 0 0 0 0 0 0 0 0 0 0 0 0 0 0 0 0 0 0 0 0 0 1 2 3 3 3 2 2 2 2 2 1 0
0 0 0 0 0 0 0 0 0 0 0 0 0 0 0 0 0 0 0 0 0 0 0 0 0 0 0 0 0 0 0 0 0 1 2 2 1 1 1 1 1 1 0 0
0 0 0 0 0 0 0 0 0 0 0 0 0 0 0 0 0 0 0 0 0 0 0 0 0 0 0 0 0 0 0 0 0 0 1 1 0 0 0 0 0 0 0 0
0 0 0 0 0 0 0 0 0 0 0 0 0 0 0 0 0 0 0 0 0 0 0 0 0 0 0 0 0 0 0 0 0 0 0 0 0 0 0 0 0 0 0 0
0 0 0 0 0 0 0 0 0 0 0 0 0 0 0 0 0 0 0 0 0 0 0 0 0 0 0 0 0 0 0 0 0 0 0 0 0 0 0 0 0 0 0 0
0 0 0 0 0 0 0 0 0 0 0 0 0 0 0 0 0 0 0 0 0 0 0 0 0 0 0 0 0 0 0 0 0 0 0 0 0 0 0 0 0 0 0 0
0 0 0 0 0 0 0 0 0 0 0 0 0 0 0 0 0 0 0 0 0 0 0 0 0 0 0 0 0 0 0 0 0 0 0 0 0 0 0 0 0 0 0 0
0 0 0 0 0 0 0 0 0 0 0 0 0 0 0 0 0 0 0 0 0 0 0 0 0 0 0 0 0 0 0 0 0 0 0 0 0 0 0 0 0 0 0 0
0 0 0 0 0 0 0 0 0 0 0 0 0 0 0 0 0 0 0 0 0 0 0 0 0 0 0 0 0 0 0 0 0 0 0 0 0 0 0 0 0 0 0 0
0 0 0 0 0 0 0 0 0 0 0 0 0 0 0 0 0 0 0 0 0 0 0 0 0 0 0 0 0 0 0 0 0 0 0 0 0 0 0 0 0 0 0 0
0 0 0 0 0 0 0 0 0 0 0 0 0 0 0 0 0 0 0 0 0 0 0 0 0 0 0 0 0 0 0 0 0 0 0 0 0 0 0 0 0 0 0 0
0 0 0 0 0 0 0 0 0 0 0 0 0 0 0 0 0 0 0 0 0 0 0 0 0 0 0 0 0 0 0 0 0 0 0 0 0 0 0 0 0 0 0 0
0 0 0 0 0 0 0 0 0 0 0 0 0 0 0 0 0 0 0 0 0 0 0 0 0 0 0 0 0 0 0 0 0 0 0 0 0 0 0 0 0 0 0 0
0 0 0 0 0 0 0 0 0 0 0 0 0 0 0 0 0 0 0 0 0 0 0 0 0 0 0 0 0 0 0 0 0 0 0 0 0 0 0 0 0 0 0 0
0 0 0 0 0 0 0 0 0 0 0 0 0 0 0 0 0 0 0 0 0 0 0 0 0 0 0 0 0 0 0 0 0 0 0 0 0 0 0 0 0 0 0 0
0 0 0 0 0 0 0 0 0 0 0 0 0 0 0 0 0 0 0 0 0 0 0 0 0 0 0 0 0 0 0 0 0 0 0 0 0 0 0 0 0 0 0 0
0 0 0 0 0 0 0 0 0 0 0 0 0 0 0 0 0 0 0 0 0 0 0 0 0 0 0 0 0 0 0 0 0 0 0 0 0 0 0 0 0 0 0 0
Wind_Speed
9 8 7 10 11 11 13 14 13 12 12 11 8 7 6 4 3 3 4 5 5 5 4 4 4 4 3 4 4 5 6 6 6 6 5 5 4 4 4 5 5 5 5 5
9 8 9 12 13 13 14 14 14 14 13 9 7 6 5 4 3 4 4 4 5 5 5 4 4 4 4 4 4 5 6 6 5 5 5 5 5 4 4 4 5 5 5 5
9 7 8 11 11 13 12 11 12 13 11 7 6 5 5 5 4 4 4 4 5 5 5 5 4 4 4 4 4 4 5 5 5 6 5 5 5 4 4 4 4 5 5 5
7 7 11 3 1 5 8 8 8 9 8 7 7 7 5 4 4 4 4 4 4 4 4 4 4 4 4 3 4 4 5 5 5 6 6 5 5 5 5 5 4 4 5 5
6 9 9 5 2 3 6 7 4 6 6 6 6 6 5 2 4 5 4 4 4 4 4 3 3 3 3 3 3 4 5 5 6 6 6 6 6 6 5 4 4 4 4 4
7 9 8 2 2 3 6 7 1 4 6 6 5 6 3 4 5 4 3 3 2 2 3 3 3 3 3 3 3 4 4 5 5 6 6 6 6 6 5 4 4 4 4 4
11 10 7 2 2 3 7 3 5 5 6 6 5 6 5 5 5 3 2 1 1 2 2 2 3 3 4 4 4 4 4 4 4 5 6 6 5 5 5 4 4 4 4 3
8 10 6 3 1 3 5 6 5 6 6 6 6 5 4 4 4 2 1 1 1 1 1 1 2 3 3 3 3 3 3 3 3 3 3 4 4 4 4 5 5 4 4 3
5 4 3 1 3 4 5 5 6 7 6 5 5 5 5 4 3 2 1 1 1 1 1 1 2 3 3 2 2 2 3 3 3 3 3 3 4 4 4 4 4 4 4 3
7 6 5 4 4 4 4 5 6 7 6 5 5 5 5 3 2 2 1 1 1 1 1 1 2 2 2 2 2 2 3 3 3 3 3 3 3 3 4 4 4 4 4 3
9 6 5 5 4 5 5 6 6 6 6 5 5 5 4 3 2 2 2 2 2 2 1 2 2 2 1 2 2 3 2 2 3 3 3 3 3 3 4 4 3 4 4 4
7 5 6 6 5 6 6 6 6 6 6 5 4 5 4 3 2 2 2 2 2 2 2 2 2 1 1 2 2 3 2 2 2 2 2 2 2 2 1 1 2 2 1 2
7 6 7 7 6 5 5 6 6 6 5 5 4 3 3 3 2 2 2 2 2 2 2 2 2 2 2 2 3 3 3 3 2 2 2 2 3 3 3 2 3 3 2 2
6 6 6 5 5 5 5 6 5 5 4 4 3 3 2 2 2 2 2 3 3 2 2 2 2 2 2 2 2 3 3 2 2 2 3 3 3 3 2 3 3 2 3 3
6 6 6 5 5 5 4 4 4 4 3 3 2 2 2 2 2 2 2 2 2 2 2 2 2 2 2 2 2 3 3 2 2 2 2 2 2 2 2 3 3 2 2 3
4 4 4 4 4 5 4 4 4 4 4 3 3 3 3 3 2 2 2 2 3 3 3 3 2 2 2 2 2 2 2 2 2 2 3 3 3 3 3 2 3 3 2 2
5 4 4 4 4 5 5 5 5 5 4 4 3 3 3 2 2 2 2 3 3 3 3 3 2 2 2 2 2 2 2 2 3 3 3 3 3 3 3 2 3 2 2 2
5 5 5 5 5 5 5 5 5 4 4 3 3 3 3 3 3 3 3 2 2 2 2 2 2 2 2 2 2 2 2 2 3 3 3 3 3 3 3 3 3 4 3 3
4 4 4 4 5 5 5 5 5 4 3 3 3 3 3 3 3 2 2 2 3 3 3 2 2 2 2 2 2 2 3 3 3 3 3 3 3 3 3 3 3 3 3 3
3 3 4 4 4 4 4 4 4 3 3 3 3 2 2 3 2 2 2 3 2 3 3 3 3 2 2 2 2 2 2 3 3 3 3 3 3 3 3 3 3 3 3 3
3 3 3 3 4 4 4 3 2 2 3 3 3 3 3 3 2 2 2 3 3 3 3 2 3 2 2 1 2 3 3 3 3 3 3 3 3 3 3 3 3 3 3 4
3 3 3 3 3 3 3 3 3 2 2 2 2 2 2 2 3 3 3 3 3 3 3 2 2 2 2 2 2 3 3 3 3 3 3 3 3 3 3 3 4 3 4 4
3 2 2 2 2 3 3 3 3 2 2 2 3 3 3 3 2 2 3 3 3 4 3 3 3 3 3 3 2 3 3 3 3 3 3 3 3 3 3 4 4 4 4 4
3 3 3 3 2 2 3 3 3 2 2 3 2 2 2 2 2 2 3 3 4 4 3 3 3 3 3 2 2 2 2 2 2 2 2 2 2 3 3 3 3 3 3 4
3 3 3 3 3 2 2 2 2 2 2 2 2 2 2 2 2 3 3 3 4 3 3 2 3 3 3 2 2 2 2 2 2 2 2 2 2 2 3 3 3 3 3 3
3 3 3 3 3 2 2 2 2 2 2 2 2 2 2 2 2 2 2 3 3 3 2 2 2 3 2 2 2 2 2 2 2 2 2 2 3 3 3 3 4 3 3 3
3 2 2 2 2 2 2 2 2 2 2 2 3 2 2 3 3 3 3 2 2 2 2 2 2 2 2 2 2 2 2 2 2 2 2 2 2 2 2 3 3 3 3 3
Wind_Direction
263 271 264 260 253 244 244 252 262 269 271 281 290 294 291 277 245 226 217 208 204 206 207 206 205 208 212 217 219 218 218 223 227 228 226 227 222 223 223 224 228 226 225 224
253 252 256 259 253 247 247 253 257 266 269 282 293 292 288 275 248 233 227 221 211 210 207 211 213 213 212 218 220 221 222 224 222 222 222 223 218 219 220 222 227 224 224 220
258 260 262 250 245 240 237 239 251 260 273 289 282 283 286 286 260 242 237 232 222 216 214 215 217 221 221 221 219 221 225 223 217 215 215 220 217 213 216 219 220 219 219 217
263 254 249 267 3 254 249 253 258 271 287 287 290 291 281 278 271 262 253 247 238 227 221 218 216 221 226 220 219 223 222 221 218 216 216 216 214 216 220 220 215 217 218 219
249 254 260 256 249 250 250 256 275 281 295 306 307 276 250 281 289 282 271 260 248 239 228 218 215 216 217 218 222 230 230 225 220 219 217 215 211 214 218 217 217 221 218 217
240 253 258 275 20 312 261 247 322 307 304 309 300 270 289 347 318 298 283 266 249 225 210 208 208 205 213 217 224 234 239 239 232 224 221 217 216 214 210 211 216 216 217 218
241 250 259 349 357 256 244 321 351 313 304 299 283 300 322 322 311 297 279 262 228 205 193 200 200 203 218 228 239 245 244 242 238 229 226 220 217 207 202 203 209 211 210 213
236 244 248 65 335 271 327 343 332 323 318 304 300 311 314 315 313 302 280 239 207 189 177 185 199 207 220 241 254 254 244 240 236 230 229 220 210 203 201 199 200 202 201 201
252 267 342 335 303 318 324 319 327 321 320 317 312 310 313 312 312 299 277 256 230 185 174 188 204 218 229 252 256 245 234 232 235 227 222 222 209 197 198 202 205 206 203 199
259 255 273 283 290 308 320 317 318 316 314 311 310 311 309 305 301 301 296 286 247 218 219 225 227 238 242 248 244 232 228 224 225 219 214 212 209 204 204 207 209 206 205 202
262 269 270 259 271 295 307 309 309 308 305 302 299 298 298 295 298 304 305 286 262 248 249 257 249 251 262 250 238 233 228 225 225 219 215 209 206 209 213 213 218 216 211 206
266 281 280 288 296 294 292 295 296 296 297 296 291 287 287 293 303 299 302 297 290 283 271 267 257 259 277 266 244 234 233 231 231 222 212 209 203 191 132 199 163 194 224 234
282 291 289 296 297 291 291 297 298 289 284 286 284 271 267 280 291 300 299 298 293 281 273 273 268 273 280 270 250 242 240 240 233 229 216 213 211 209 193 162 156 174 179 197
272 270 272 279 291 297 296 296 296 292 285 277 271 264 258 271 282 291 301 303 296 282 273 272 272 276 279 265 245 244 246 235 231 223 219 214 218 218 212 202 191 186 179 182
266 263 273 285 288 291 295 292 290 291 294 284 274 268 267 274 281 288 300 297 287 288 288 277 275 284 285 261 243 240 240 231 226 223 214 207 211 214 211 212 209 197 187 173
281 271 269 272 281 287 288 288 287 290 287 279 274 270 269 276 286 283 280 280 276 285 295 292 289 297 293 270 258 245 227 218 230 223 206 203 206 211 213 215 214 206 198 203
262 261 265 271 276 282 283 282 282 282 277 273 274 273 266 270 282 293 296 292 285 286 291 297 297 304 294 281 275 260 233 201 210 224 214 208 210 215 214 214 217 221 214 196
257 260 263 268 270 275 280 281 282 282 281 286 280 267 262 262 269 282 288 288 285 285 292 293 300 298 284 279 275 261 243 226 223 224 217 211 214 216 218 219 223 229 234 203
271 275 277 277 280 279 279 278 278 278 280 273 266 271 277 277 278 278 281 281 285 294 302 298 278 257 262 263 259 243 239 231 226 225 220 203 215 220 220 221 225 232 237 232
281 285 284 286 289 287 286 287 282 275 273 271 272 274 274 279 282 288 298 302 304 309 307 304 276 260 255 247 237 247 243 238 233 226 222 221 223 226 225 225 228 233 241 245
288 288 286 287 292 292 291 291 284 279 287 282 269 270 276 280 284 289 296 299 311 323 314 290 267 269 268 265 230 241 234 233 230 225 222 225 229 233 235 234 234 238 245 251
287 283 283 287 295 304 310 308 301 297 301 293 289 291 290 288 292 296 295 297 307 321 307 286 282 294 292 267 248 243 236 232 231 227 222 224 231 236 239 243 242 240 243 249
296 292 291 289 297 308 313 311 310 309 301 294 291 293 297 300 296 288 292 309 312 314 302 293 310 308 286 253 246 241 237 233 231 233 234 231 233 239 242 243 245 248 250 251
302 304 307 304 299 293 300 312 321 317 308 304 303 302 296 297 299 300 301 302 306 299 289 294 290 284 270 258 251 248 240 233 229 230 235 242 244 246 250 250 250 252 258 261
299 300 300 295 290 291 298 306 310 317 318 314 315 314 303 295 290 294 298 300 305 297 292 290 287 280 264 258 247 245 244 240 238 232 227 234 241 248 254 257 260 264 266 266
298 296 293 290 292 288 284 283 284 288 292 293 300 302 303 303 298 294 293 296 298 292 294 291 280 267 264 263 257 252 248 238 230 236 240 243 247 250 256 261 263 263 266 269
288 287 289 291 296 291 280 274 275 279 283 286 294 300 301 300 297 297 294 291 292 287 286 282 275 269 268 260 251 250 252 256 258 258 257 256 257 258 262 264 267 269 270 271